Location: NJAA Observatory
(40.6819°N, 74.8979°W)
Time: 06:33:11
(UTC-04:00)

Transit 2A Rocket - Visible Passes

Search period start: 02 September 2015 00:00
Search period end: 12 September 2015 00:00
Orbit: 593 x 913 km, 66.7° (Epoch: 01 September)

Date Brightness Start Highest point End Pass type
(mag) Time Alt. Az. Time Alt. Az. Time Alt. Az.
02 Sep 6.3 22:25:19 10° NNW 22:27:37 29° N 22:27:37 29° N visible
03 Sep 5.9 21:43:27 10° N 21:46:32 28° NNE 21:46:32 28° NNE visible
03 Sep 7.6 23:26:13 10° NW 23:26:27 11° WNW 23:26:27 11° WNW visible
04 Sep 6.2 21:01:51 10° N 21:04:54 18° NE 21:05:28 18° NE visible
04 Sep 6.8 22:43:36 10° NW 22:45:24 23° NW 22:45:24 23° NW visible
05 Sep 6.7 20:21:00 10° NNE 20:22:19 11° NE 20:23:48 10° ENE visible
05 Sep 5.5 22:01:20 10° NNW 22:04:23 44° NNW 22:04:23 44° NNW visible
06 Sep 4.9 21:19:18 10° NNW 21:23:24 45° NE 21:23:24 45° NE visible
06 Sep 7.5 23:03:01 10° WNW 23:03:20 11° WNW 23:03:20 11° WNW visible
07 Sep 5.7 20:37:30 10° N 20:41:10 26° NE 20:42:29 22° ENE visible
07 Sep 6.5 22:19:57 10° NW 22:22:25 25° W 22:22:25 25° W visible
08 Sep 6.4 19:56:03 10° N 19:58:41 16° NE 20:01:25 10° E visible
08 Sep 4.9 21:37:27 10° NW 21:41:33 58° WSW 21:41:33 58° WSW visible
09 Sep 4.4 20:55:15 10° NNW 20:59:36 72° ENE 21:00:45 47° SE visible
10 Sep 5.1 20:13:17 10° NNW 20:17:22 38° NE 20:20:01 19° ESE visible
10 Sep 6.6 21:56:33 10° WNW 21:59:40 19° WSW 21:59:59 19° WSW visible
11 Sep 5.8 21:13:43 10° NW 21:17:41 36° WSW 21:19:21 26° SSW visible
